Radiation Dose at Monitoring Post of Fukushima Daini Nuclear Power Station
Date,Time,MP-1(microSv/h),MP-2(microSv/h),MP-3(microSv/h),MP-4(microSv/h),MP-5(microSv/h),MP-6(microSv/h),MP-7(microSv/h),Wind Direction,Wind Velocity(m/s),Rain
2017/12/25,00:00,0.339,0.207,0.347,0.326,0.307,0.172,0.102,south-southwest,11.1,No
2017/12/25,00:10,0.339,0.207,0.349,0.325,0.308,0.171,0.102,south-southwest,8.4,No
2017/12/25,00:20,0.340,0.208,0.348,0.326,0.309,0.170,0.102,south-southwest,7.9,No
2017/12/25,00:30,0.339,0.208,0.347,0.324,0.309,0.171,0.102,south-southwest,9.8,No
2017/12/25,00:40,0.340,0.209,0.349,0.327,0.309,0.171,0.103,south-southwest,10.0,No
2017/12/25,00:50,0.340,0.207,0.347,0.325,0.310,0.173,0.102,south-southwest,11.8,Yes
2017/12/25,01:00,0.341,0.207,0.349,0.326,0.309,0.171,0.103,south-southwest,14.4,Yes
2017/12/25,01:10,0.339,0.209,0.348,0.327,0.308,0.172,0.104,south-southwest,10.9,Yes
2017/12/25,01:20,0.341,0.209,0.348,0.326,0.309,0.173,0.104,south-southwest,11.1,Yes
2017/12/25,01:30,0.342,0.208,0.349,0.328,0.310,0.174,0.105,south-southwest,9.2,Yes
2017/12/25,01:40,0.341,0.209,0.349,0.327,0.309,0.174,0.105,south,8.4,Yes
2017/12/25,01:50,0.341,0.210,0.347,0.327,0.307,0.174,0.105,south,9.6,Yes
2017/12/25,02:00,0.340,0.208,0.350,0.327,0.310,0.174,0.105,south,11.1,Yes
2017/12/25,02:10,0.341,0.210,0.348,0.328,0.310,0.174,0.105,south,9.5,Yes
2017/12/25,02:20,0.340,0.208,0.349,0.326,0.307,0.174,0.105,south-southwest,8.1,Yes
2017/12/25,02:30,0.340,0.209,0.350,0.326,0.309,0.174,0.105,south-southwest,9.0,Yes
2017/12/25,02:40,0.340,0.208,0.347,0.327,0.309,0.174,0.105,south-southwest,9.0,Yes
2017/12/25,02:50,0.341,0.208,0.348,0.325,0.309,0.174,0.105,south-southwest,9.6,Yes
2017/12/25,03:00,0.339,0.209,0.347,0.325,0.309,0.174,0.105,south-southwest,11.2,Yes
2017/12/25,03:10,0.339,0.209,0.346,0.326,0.307,0.175,0.105,south-southwest,10.3,Yes
2017/12/25,03:20,0.339,0.209,0.346,0.326,0.308,0.173,0.105,south-southwest,11.5,Yes
2017/12/25,03:30,0.340,0.210,0.346,0.325,0.309,0.174,0.106,south-southwest,10.3,Yes
2017/12/25,03:40,0.338,0.210,0.346,0.325,0.308,0.174,0.105,south-southwest,10.0,Yes
2017/12/25,03:50,0.339,0.208,0.345,0.324,0.307,0.175,0.106,south-southwest,9.2,Yes
2017/12/25,04:00,0.338,0.209,0.346,0.323,0.307,0.174,0.107,south,10.0,Yes
2017/12/25,04:10,0.338,0.208,0.343,0.323,0.306,0.174,0.105,south-southwest,10.1,Yes
2017/12/25,04:20,0.339,0.208,0.343,0.324,0.307,0.172,0.106,south,9.6,Yes
2017/12/25,04:30,0.338,0.209,0.343,0.322,0.306,0.172,0.106,south-southwest,8.4,Yes
2017/12/25,04:40,0.337,0.207,0.342,0.322,0.306,0.172,0.105,south-southwest,7.4,Yes
2017/12/25,04:50,0.337,0.206,0.342,0.322,0.307,0.172,0.104,south-southwest,6.2,Yes
2017/12/25,05:00,0.335,0.206,0.341,0.321,0.303,0.170,0.103,south-southwest,5.3,Yes
2017/12/25,05:10,0.336,0.206,0.342,0.321,0.305,0.171,0.103,southwest,3.6,Yes
2017/12/25,05:20,0.335,0.206,0.340,0.321,0.305,0.171,0.103,west,4.5,Yes
2017/12/25,05:30,0.333,0.207,0.339,0.318,0.303,0.170,0.103,west-northwest,4.1,Yes
2017/12/25,05:40,0.333,0.206,0.336,0.316,0.304,0.171,0.104,west,2.6,Yes
2017/12/25,05:50,0.333,0.205,0.337,0.318,0.302,0.169,0.102,west-northwest,10.3,Yes
2017/12/25,06:00,0.332,0.205,0.338,0.317,0.301,0.171,0.103,north-northwest,8.1,Yes
2017/12/25,06:10,0.334,0.204,0.336,0.315,0.304,0.169,0.103,northwest,9.0,Yes
2017/12/25,06:20,0.332,0.205,0.337,0.319,0.303,0.170,0.103,west-northwest,7.4,Yes
2017/12/25,06:30,0.334,0.208,0.337,0.318,0.305,0.171,0.105,northwest,5.6,Yes
2017/12/25,06:40,0.336,0.208,0.338,0.317,0.307,0.172,0.106,northwest,8.1,Yes
2017/12/25,06:50,0.338,0.210,0.339,0.320,0.308,0.174,0.108,northwest,8.3,No
2017/12/25,07:00,0.337,0.210,0.341,0.321,0.307,0.173,0.107,northwest,10.1,No
2017/12/25,07:10,0.337,0.208,0.339,0.320,0.308,0.172,0.105,northwest,10.7,No
2017/12/25,07:20,0.337,0.207,0.339,0.318,0.306,0.170,0.105,northwest,13.1,No
2017/12/25,07:30,0.335,0.207,0.338,0.319,0.304,0.170,0.104,north-northwest,11.5,No
2017/12/25,07:40,0.333,0.206,0.339,0.318,0.305,0.169,0.103,-,CALM,No
2017/12/25,07:50,0.336,0.204,0.338,0.317,0.304,0.169,0.103,north,11.8,No
2017/12/25,08:00,0.334,0.204,0.337,0.317,0.304,0.167,0.102,-,CALM,No
2017/12/25,08:10,0.333,0.204,0.336,0.316,0.305,0.167,0.102,north-northwest,9.2,No
2017/12/25,08:20,0.333,0.204,0.338,0.316,0.305,0.167,0.101,north-northwest,9.6,No
2017/12/25,08:30,0.334,0.202,0.337,0.317,0.303,0.168,0.101,north-northwest,11.2,No
2017/12/25,08:40,0.332,0.203,0.336,0.317,0.305,0.167,0.101,west-northwest,12.1,No
2017/12/25,08:50,0.334,0.203,0.338,0.314,0.302,0.166,0.100,northwest,11.7,No
2017/12/25,09:00,0.333,0.202,0.338,0.314,0.302,0.166,0.101,northwest,12.2,No
2017/12/25,09:10,0.334,0.202,0.337,0.314,0.302,0.167,0.100,northwest,10.9,No
2017/12/25,09:20,0.335,0.204,0.339,0.313,0.304,0.166,0.100,northwest,12.8,No
2017/12/25,09:30,0.334,0.203,0.337,0.316,0.305,0.167,0.100,north-northwest,11.1,No
2017/12/25,09:40,0.333,0.203,0.337,0.314,0.304,0.167,0.100,northwest,8.4,No
2017/12/25,09:50,0.335,0.204,0.338,0.315,0.305,0.166,0.100,northwest,5.5,No
2017/12/25,10:00,0.335,0.203,0.338,0.315,0.303,0.166,0.101,northwest,7.7,No
2017/12/25,10:10,0.334,0.203,0.337,0.317,0.305,0.167,0.100,west-northwest,8.8,No
2017/12/25,10:20,0.335,0.203,0.338,0.315,0.304,0.167,0.100,west-northwest,9.3,No
2017/12/25,10:30,0.333,0.203,0.337,0.315,0.302,0.167,0.100,west-northwest,6.5,No
2017/12/25,10:40,0.335,0.203,0.335,0.316,0.305,0.168,0.100,west-northwest,5.1,No
2017/12/25,10:50,0.336,0.203,0.338,0.315,0.302,0.166,0.101,west-northwest,8.4,No
2017/12/25,11:00,0.335,0.204,0.337,0.317,0.306,0.167,0.100,west-northwest,7.0,No
2017/12/25,11:10,0.335,0.204,0.337,0.315,0.302,0.167,0.100,west-northwest,10.9,No
2017/12/25,11:20,0.332,0.202,0.338,0.317,0.305,0.168,0.101,west-northwest,9.3,No
2017/12/25,11:30,0.335,0.204,0.339,0.315,0.303,0.168,0.101,west-northwest,10.1,No
2017/12/25,11:40,0.333,0.202,0.338,0.317,0.305,0.169,0.101,west,9.2,No
2017/12/25,11:50,0.334,0.203,0.338,0.317,0.303,0.169,0.101,west-northwest,7.3,No
2017/12/25,12:00,0.335,0.204,0.338,0.315,0.305,0.168,0.100,west-northwest,9.3,No
2017/12/25,12:10,0.333,0.203,0.339,0.318,0.304,0.168,0.100,west-southwest,10.0,No
2017/12/25,12:20,0.335,0.204,0.341,0.318,0.304,0.168,0.100,west-northwest,10.9,No
2017/12/25,12:30,0.337,0.204,0.338,0.318,0.305,0.167,0.100,west-northwest,7.3,No
2017/12/25,12:40,0.337,0.205,0.340,0.318,0.306,0.169,0.101,west,9.8,No
2017/12/25,12:50,0.335,0.204,0.339,0.318,0.306,0.168,0.102,west,8.4,No
2017/12/25,13:00,0.336,0.204,0.339,0.318,0.304,0.169,0.101,west,7.0,Yes
2017/12/25,13:10,0.336,0.204,0.340,0.318,0.307,0.169,0.102,west-southwest,14.2,No
2017/12/25,13:20,0.337,0.205,0.340,0.319,0.306,0.170,0.102,west,11.2,No
2017/12/25,13:30,0.337,0.206,0.340,0.317,0.307,0.170,0.102,west-northwest,9.5,No
2017/12/25,13:40,0.337,0.205,0.339,0.318,0.307,0.170,0.102,west,7.3,No
2017/12/25,13:50,0.337,0.204,0.339,0.318,0.307,0.169,0.102,west,8.2,No
2017/12/25,14:00,0.336,0.203,0.340,0.317,0.307,0.170,0.101,west,6.5,No
2017/12/25,14:10,0.337,0.205,0.341,0.317,0.307,0.169,0.101,west-southwest,7.0,No
2017/12/25,14:20,0.338,0.205,0.341,0.318,0.305,0.169,0.101,west,13.3,No
2017/12/25,14:30,0.336,0.205,0.339,0.318,0.306,0.168,0.101,west,11.8,No
2017/12/25,14:40,0.336,0.204,0.340,0.319,0.304,0.170,0.101,west,12.6,No
2017/12/25,14:50,0.337,0.205,0.339,0.319,0.308,0.169,0.101,west-northwest,10.1,No
2017/12/25,15:00,0.337,0.204,0.339,0.318,0.307,0.169,0.101,west-northwest,11.7,No
2017/12/25,15:10,0.336,0.205,0.340,0.319,0.308,0.170,0.102,west-northwest,7.5,No
2017/12/25,15:20,0.338,0.205,0.342,0.320,0.307,0.169,0.102,west,8.4,No
2017/12/25,15:30,0.338,0.204,0.341,0.319,0.306,0.169,0.102,west,5.6,No
2017/12/25,15:40,0.338,0.206,0.341,0.318,0.307,0.170,0.102,west-northwest,9.0,No
2017/12/25,15:50,0.336,0.206,0.340,0.319,0.307,0.168,0.101,west-northwest,6.6,No
2017/12/25,16:00,0.338,0.204,0.341,0.318,0.307,0.169,0.102,west,8.3,No
2017/12/25,16:10,0.338,0.205,0.341,0.319,0.306,0.169,0.101,west,10.7,No
2017/12/25,16:20,0.337,0.204,0.340,0.319,0.307,0.169,0.102,west,7.6,No
2017/12/25,16:30,0.337,0.205,0.340,0.318,0.308,0.169,0.102,west,5.9,No
2017/12/25,16:40,0.338,0.205,0.340,0.319,0.307,0.168,0.101,west-northwest,7.3,No
2017/12/25,16:50,0.338,0.206,0.341,0.321,0.307,0.169,0.102,west-northwest,7.9,No
2017/12/25,17:00,0.338,0.204,0.342,0.317,0.306,0.168,0.101,west-northwest,7.3,No
2017/12/25,17:10,0.336,0.206,0.339,0.319,0.306,0.170,0.102,west-northwest,8.4,No
2017/12/25,17:20,0.336,0.206,0.341,0.319,0.306,0.169,0.102,west-northwest,7.3,No
2017/12/25,17:30,0.336,0.205,0.342,0.320,0.307,0.169,0.102,northwest,5.9,No
2017/12/25,17:40,0.337,0.205,0.341,0.319,0.306,0.168,0.101,west-northwest,6.4,No
2017/12/25,17:50,0.336,0.205,0.340,0.318,0.306,0.169,0.101,west-northwest,9.8,No
2017/12/25,18:00,0.337,0.204,0.339,0.319,0.306,0.168,0.101,west-northwest,7.4,No
2017/12/25,18:10,0.337,0.204,0.340,0.319,0.306,0.169,0.101,west-northwest,6.1,No
2017/12/25,18:20,0.339,0.204,0.341,0.319,0.305,0.169,0.101,west-northwest,10.1,No
2017/12/25,18:30,0.336,0.205,0.340,0.320,0.305,0.168,0.101,west-northwest,8.4,No
2017/12/25,18:40,0.336,0.204,0.340,0.318,0.305,0.169,0.101,west-northwest,5.9,No
2017/12/25,18:50,0.338,0.204,0.341,0.319,0.306,0.169,0.100,west-northwest,8.7,No
2017/12/25,19:00,0.338,0.204,0.341,0.319,0.304,0.169,0.101,northwest,9.0,No
2017/12/25,19:10,0.336,0.204,0.341,0.318,0.304,0.168,0.101,west-northwest,9.8,No
2017/12/25,19:20,0.338,0.204,0.340,0.318,0.307,0.169,0.101,west-northwest,8.1,No
2017/12/25,19:30,0.337,0.206,0.341,0.319,0.306,0.168,0.101,west-northwest,10.4,No
2017/12/25,19:40,0.337,0.204,0.341,0.319,0.306,0.170,0.101,west-northwest,7.9,No
2017/12/25,19:50,0.338,0.204,0.342,0.319,0.307,0.169,0.102,west-northwest,9.0,No
2017/12/25,20:00,0.337,0.205,0.342,0.319,0.305,0.169,0.102,northwest,6.5,No
2017/12/25,20:10,0.337,0.205,0.341,0.318,0.305,0.169,0.102,west-northwest,6.2,No
2017/12/25,20:20,0.337,0.205,0.340,0.318,0.305,0.169,0.101,northwest,7.1,No
2017/12/25,20:30,0.337,0.204,0.342,0.319,0.305,0.169,0.100,west-northwest,5.0,No
2017/12/25,20:40,0.338,0.205,0.343,0.319,0.305,0.169,0.101,west,4.0,No
2017/12/25,20:50,0.335,0.205,0.341,0.318,0.306,0.169,0.102,west,5.2,No
2017/12/25,21:00,0.336,0.204,0.341,0.319,0.305,0.169,0.101,west-northwest,4.3,No
2017/12/25,21:10,0.336,0.205,0.340,0.319,0.304,0.169,0.101,west-northwest,5.6,No
2017/12/25,21:20,0.337,0.204,0.342,0.318,0.304,0.169,0.101,west-northwest,5.9,No
2017/12/25,21:30,0.337,0.205,0.342,0.319,0.305,0.168,0.101,west,7.6,No
2017/12/25,21:40,0.336,0.204,0.339,0.319,0.305,0.169,0.101,west-northwest,6.4,No
2017/12/25,21:50,0.337,0.204,0.339,0.318,0.304,0.168,0.101,west-northwest,5.4,No
2017/12/25,22:00,0.338,0.203,0.339,0.318,0.303,0.168,0.101,west-northwest,4.5,No
2017/12/25,22:10,0.337,0.204,0.341,0.318,0.305,0.168,0.101,west-northwest,3.8,No
2017/12/25,22:20,0.336,0.204,0.340,0.319,0.304,0.168,0.100,west-northwest,3.3,No
2017/12/25,22:30,0.337,0.204,0.339,0.318,0.304,0.168,0.100,west-northwest,1.9,No
2017/12/25,22:40,0.336,0.203,0.339,0.319,0.304,0.168,0.101,west-northwest,2.8,No
2017/12/25,22:50,0.337,0.204,0.340,0.318,0.302,0.169,0.101,northwest,2.5,No
2017/12/25,23:00,0.338,0.204,0.340,0.318,0.302,0.167,0.101,west-northwest,4.3,No
2017/12/25,23:10,0.337,0.204,0.340,0.319,0.303,0.169,0.100,north-northwest,2.3,No
2017/12/25,23:20,0.338,0.204,0.339,0.319,0.302,0.169,0.101,-,CALM,No
2017/12/25,23:30,0.337,0.204,0.340,0.319,0.303,0.168,0.100,-,CALM,No
2017/12/25,23:40,0.336,0.203,0.340,0.320,0.303,0.168,0.100,west-southwest,1.8,No
2017/12/25,23:50,0.336,0.203,0.341,0.317,0.304,0.168,0.100,west-northwest,3.6,No
